Flag for U.S.A. Weather past 2 weeks in Las Cruces, New Mexico, U.S.A.

Now
72 °F

Clear.


Feels Like: 74 °F
Forecast: 70 / 92 °F
Wind: No wind

Location: Las Cruces International

Current Time: Aug 3, 2015 at 7:53:00 AM

Latest Report: Aug 3, 2015 at 7:15 AM


Visibility: 10 mi

Pressure: 30.11 "Hg (26.24 "Hg at 1187m altitude)

Humidity: 73%

Dew point: 63 °F

Location of Las CrucesLocation

Historic Weather in Las Cruces — Graph

°F

Las Cruces temperature yesterday

Maximum temperature yesterday: 91 °F (at 4:15 PM)
Minimum temperature yesterday: 67 °F (at 6:55 AM)
Average temperature yesterday: 78 °F

Past Weeks' High & Low Weather Summary

 TemperatureHumidityPressure
High99 °F (Jul 25, 3:55 PM)98% (Jul 30, 6:35 AM)30.33 "Hg (Jul 30, 6:35 AM)
Low64 °F (Jul 30, 6:35 AM)16% (Jul 25, 3:55 PM)29.93 "Hg (Jul 21, 5:55 PM)
Average79 °F52%30.12 "Hg
* Reported Jul 19 6:15 AM — Aug 3 6:15 AM, Las Cruces, Weather by CustomWeather, © 2015

Note: Actual official high and low records may vary slightly from our data, if they occured in-between our weather recording intervals... More about our weather records

Advertising

Las Cruces weather history for previous 24 hours

 ConditionsComfort  
Time TempWeatherWind HumidityBarometerVisibility
6:15 AM
Mon, Aug 3
69 °FPassing clouds.5 mph83%30.08 "Hg10 mi
5:55 AM69 °FClear.No wind82%30.08 "Hg10 mi
5:35 AM69 °FClear.No wind84%30.08 "Hg10 mi
5:15 AM69 °FPassing clouds.No wind82%30.07 "Hg10 mi
4:55 AM69 °FPassing clouds.No wind82%30.07 "Hg10 mi
4:35 AM70 °FClear.5 mph77%30.08 "Hg10 mi
4:15 AM70 °FPassing clouds.6 mph77%30.07 "Hg10 mi
3:35 AM71 °FClear.7 mph79%30.07 "Hg10 mi
3:15 AM71 °FClear.7 mph77%30.07 "Hg10 mi
2:55 AM71 °FPassing clouds.8 mph77%30.07 "Hg10 mi
2:35 AM70 °FPassing clouds.8 mph79%30.07 "Hg10 mi
2:15 AM70 °FPassing clouds.9 mph77%30.08 "Hg10 mi
1:55 AM71 °FPassing clouds.12 mph74%30.08 "Hg10 mi
1:35 AM70 °FClear.No wind75%30.07 "Hg10 mi
1:15 AM70 °FPassing clouds.6 mph75%30.08 "Hg10 mi
12:55 AM70 °FPassing clouds.9 mph79%30.09 "Hg10 mi
12:15 AM72 °FPassing clouds.7 mph77%30.12 "Hg10 mi
11:55 PM
Sun, Aug 2
71 °FPassing clouds.No wind79%30.12 "Hg10 mi
11:35 PM72 °FPassing clouds.5 mph76%30.12 "Hg10 mi
11:15 PM72 °FPartly cloudy.6 mph80%30.12 "Hg10 mi
10:55 PM74 °FLight rain. Overcast.3 mph69%30.12 "Hg10 mi
9:55 PM76 °FThundershowers. Passing clouds.3 mph64%30.07 "Hg10 mi
9:15 PM78 °FLight rain. Passing clouds.7 mph55%30.05 "Hg10 mi
8:55 PM75 °FLight rain. Broken clouds.8 mph65%30.05 "Hg10 mi
8:15 PM79 °FThunderstorms. Broken clouds.20 mph52%30.04 "Hg10 mi
7:55 PM81 °FLight rain. More clouds than sun.14 mph52%30.03 "Hg10 mi
7:35 PM82 °FOvercast.3 mph53%30.01 "Hg10 mi
7:15 PM83 °FThundershowers. Partly sunny.5 mph49%30.01 "Hg10 mi
6:55 PM86 °FSunny.3 mph46%30.00 "Hg10 mi
6:15 PM88 °FSunny.No wind33%30.00 "Hg10 mi
5:55 PM86 °FScattered clouds.No wind38%30.00 "Hg10 mi
5:35 PM81 °FRain. Mostly cloudy.9 mph59%30.02 "Hg1 mi
5:15 PM85 °FPartly sunny.10 mph38%30.01 "Hg10 mi
4:55 PM90 °FPartly sunny.No wind29%30.02 "Hg10 mi
4:15 PM91 °FSunny.5 mph29%30.02 "Hg10 mi
3:15 PM90 °FSunny.5 mph29%30.03 "Hg10 mi
2:55 PM90 °FSunny.7 mph29%30.05 "Hg10 mi
2:35 PM89 °FSunny.No wind30%30.06 "Hg10 mi
2:15 PM89 °FSunny.No wind32%30.07 "Hg10 mi
1:55 PM89 °FSunny.3 mph32%30.08 "Hg10 mi
1:35 PM87 °FSunny.3 mph33%30.08 "Hg10 mi
1:15 PM87 °FSunny.8 mph34%30.09 "Hg10 mi
12:55 PM86 °FSunny.5 mph34%30.10 "Hg10 mi
12:35 PM85 °FSunny.No wind38%30.11 "Hg10 mi
12:15 PM84 °FSunny.6 mph40%30.12 "Hg10 mi
11:55 AM83 °FSunny.7 mph43%30.12 "Hg10 mi
11:35 AM83 °FSunny.No wind43%30.12 "Hg10 mi
11:15 AM82 °FSunny.6 mph46%30.13 "Hg10 mi
10:55 AM81 °FSunny.3 mph48%30.13 "Hg10 mi
10:35 AM80 °FSunny.6 mph50%30.14 "Hg10 mi
10:15 AM79 °FSunny.No wind50%30.14 "Hg10 mi
9:55 AM79 °FSunny.No wind52%30.13 "Hg10 mi
9:35 AM78 °FSunny.6 mph55%30.12 "Hg10 mi
9:15 AM78 °FSunny.3 mph55%30.12 "Hg10 mi
8:55 AM76 °FSunny.No wind60%30.12 "Hg10 mi
8:35 AM75 °FSunny.No wind60%30.12 "Hg10 mi
8:15 AM73 °FSunny.No wind66%30.12 "Hg10 mi
7:55 AM71 °FSunny.No wind72%30.11 "Hg10 mi
7:35 AM71 °FSunny.No wind73%30.11 "Hg10 mi
7:15 AM68 °FClear.No wind81%30.10 "Hg10 mi
Weather by CustomWeather, © 2015

See weather overviewHow to use our weather pages